TimeAKDT,TemperatureF,Dew PointF,Humidity,Sea Level PressureIn,VisibilityMPH,Wind Direction,Wind SpeedMPH,Gust SpeedMPH,PrecipitationIn,Events,Conditions,WindDirDegrees,DateUTC
12:53 AM,30.0,12.9,49,29.96,10.0,North,10.4,-,N/A,,Clear,10,2013-04-28 08:53:00
1:53 AM,28.9,12.0,49,29.98,10.0,North,6.9,-,N/A,,Clear,360,2013-04-28 09:53:00
2:53 AM,26.1,15.1,63,29.99,10.0,North,8.1,-,N/A,,Clear,360,2013-04-28 10:53:00
3:53 AM,26.1,12.0,55,29.99,10.0,NNE,6.9,-,N/A,,Clear,30,2013-04-28 11:53:00
4:53 AM,26.1,10.9,53,30.00,10.0,NNE,6.9,-,N/A,,Clear,20,2013-04-28 12:53:00
5:53 AM,25.0,10.0,53,30.01,10.0,East,5.8,-,N/A,,Clear,90,2013-04-28 13:53:00
6:53 AM,26.1,10.9,53,30.02,10.0,NNE,8.1,-,N/A,,Clear,30,2013-04-28 14:53:00
7:53 AM,28.9,12.0,49,30.04,10.0,NNE,9.2,-,N/A,,Clear,20,2013-04-28 15:53:00
8:53 AM,32.0,10.0,40,30.04,10.0,North,8.1,-,N/A,,Clear,10,2013-04-28 16:53:00
9:53 AM,33.1,12.0,42,30.06,10.0,NNE,12.7,-,N/A,,Clear,20,2013-04-28 17:53:00
10:53 AM,35.1,12.0,39,30.06,10.0,North,10.4,-,N/A,,Clear,10,2013-04-28 18:53:00
11:53 AM,36.0,12.0,37,30.08,10.0,North,17.3,-,N/A,,Clear,10,2013-04-28 19:53:00
12:53 PM,37.0,16.0,42,30.09,10.0,North,11.5,-,N/A,,Clear,360,2013-04-28 20:53:00
1:53 PM,37.0,12.9,37,30.10,10.0,NNW,13.8,-,N/A,,Clear,340,2013-04-28 21:53:00
2:53 PM,37.9,16.0,41,30.11,10.0,North,10.4,20.7,N/A,,Clear,350,2013-04-28 22:53:00
3:53 PM,39.0,17.1,41,30.11,10.0,North,11.5,-,N/A,,Clear,360,2013-04-28 23:53:00
4:53 PM,39.9,16.0,38,30.10,10.0,North,9.2,-,N/A,,Clear,10,2013-04-29 00:53:00
5:53 PM,37.9,17.1,43,30.11,10.0,WNW,9.2,-,N/A,,Clear,300,2013-04-29 01:53:00
6:53 PM,37.9,18.0,45,30.12,10.0,NW,8.1,-,N/A,,Clear,310,2013-04-29 02:53:00
7:53 PM,37.9,18.0,45,30.13,10.0,NW,5.8,-,N/A,,Clear,310,2013-04-29 03:53:00
8:53 PM,35.1,23.0,61,30.14,10.0,WNW,4.6,-,N/A,,Clear,290,2013-04-29 04:53:00
9:53 PM,32.0,21.9,66,30.15,10.0,WNW,3.5,-,N/A,,Clear,300,2013-04-29 05:53:00
10:53 PM,30.0,21.0,69,30.17,10.0,WNW,4.6,-,N/A,,Clear,300,2013-04-29 06:53:00
11:53 PM,30.0,21.9,72,30.17,10.0,Calm,Calm,-,N/A,,Clear,0,2013-04-29 07:53:00